Dewpoint
0 1 0 1 2 2 3 3 3 3 4 1 1 3 3 2 1 1 1 3 3 3 3 3 3 3 0 -1 -2 1 -0 2 -1 -1 -8 -10 -6 -4 -1 2 0 2 2 -9
-3 -3 -2 -1 -0 2 2 4 3 2 2 3 3 2 3 3 3 2 3 3 3 3 3 4 3 1 -1 -1 0 2 1 1 0 -2 -3 -4 -7 -10 -10 -7 -3 -2 2 -9
-11 -12 -11 -9 -5 -1 1 2 2 0 -1 -1 0 3 3 3 2 3 2 2 2 3 3 3 3 1 -0 -1 0 1 1 1 1 0 -3 -8 -10 -13 -12 -8 -2 -7 -12 -14
-23 -24 -25 -21 -16 -13 -5 1 1 1 2 -1 -1 1 2 2 3 2 2 2 2 2 3 3 3 2 1 1 -1 2 1 2 -5 -10 -11 -12 -13 -14 -14 -13 -13 -10 -15 -14
-23 -27 -17 -27 -26 -27 -14 -1 0 1 0 -0 0 -7 -7 -5 -6 -3 -1 -5 -4 -2 1 -3 -1 -2 -6 -10 -7 -6 -5 1 -7 -11 -12 -13 -14 -14 -16 -16 -15 -14 -15 -15
-16 -24 -16 -23 -17 -17 -5 -2 -3 -3 -8 -7 -7 -12 -11 -7 -9 -5 -7 -7 -4 -8 -9 -10 -10 -11 -11 -12 -11 -10 -7 -4 -2 -11 -12 -10 -12 -15 -15 -16 -16 -15 -15 -15
-14 -16 -19 -22 -18 -10 -5 -5 -5 -5 -10 -13 -13 -15 -15 -12 -11 -8 -7 -9 -7 -8 -9 -9 -9 -10 -11 -12 -14 -13 -10 -6 -8 -11 -10 -6 -15 -16 -18 -17 -17 -16 -16 -16
-12 -12 -12 -11 -9 -6 -6 -6 -5 -6 -16 -16 -19 -19 -19 -16 -15 -12 -8 -9 -10 -9 -8 -6 -6 -6 -9 -12 -13 -16 -15 -9 -10 -10 -14 -15 -14 -15 -15 -15 -17 -17 -17 -17
-12 -12 -11 -9 -7 -6 -6 -7 -6 -7 -15 -17 -16 -18 -17 -18 -18 -16 -12 -13 -13 -10 -6 -6 -9 -12 -12 -13 -14 -19 -17 -16 -11 -11 -11 -11 -15 -15 -15 -15 -15 -18 -18 -18
-15 -15 -12 -12 -10 -8 -8 -7 -14 -21 -18 -17 -16 -17 -18 -16 -17 -18 -15 -14 -14 -14 -9 -10 -11 -13 -13 -15 -15 -15 -18 -17 -15 -13 -15 -15 -16 -18 -19 -15 -18 -21 -21 -19
-22 -25 -24 -20 -16 -18 -18 -25 -29 -31 -20 -19 -18 -18 -17 -16 -16 -18 -16 -16 -15 -15 -12 -12 -12 -13 -14 -17 -18 -18 -18 -19 -17 -17 -16 -15 -20 -20 -20 -20 -20 -21 -22 -19
-12 -14 -22 -25 -33 -34 -35 -34 -33 -30 -24 -21 -21 -20 -19 -18 -15 -16 -14 -14 -14 -14 -16 -16 -16 -17 -20 -23 -22 -23 -21 -22 -21 -23 -21 -21 -19 -21 -21 -20 -20 -20 -20 -21
-29 -28 -29 -30 -30 -32 -33 -30 -30 -29 -25 -26 -24 -23 -23 -24 -23 -21 -16 -20 -19 -18 -17 -19 -23 -21 -24 -26 -25 -27 -25 -23 -25 -24 -24 -19 -21 -22 -21 -21 -20 -21 -21 -20
-30 -30 -30 -30 -30 -31 -32 -31 -32 -33 -28 -24 -26 -25 -24 -25 -27 -27 -26 -24 -24 -24 -25 -21 -23 -21 -22 -24 -24 -23 -22 -23 -28 -27 -27 -24 -21 -22 -20 -19 -19 -21 -20 -20
-28 -28 -28 -29 -29 -29 -30 -30 -31 -31 -31 -24 -27 -26 -26 -27 -29 -29 -30 -33 -31 -28 -22 -21 -23 -20 -22 -24 -25 -26 -20 -25 -25 -24 -25 -22 -21 -21 -19 -20 -21 -20 -19 -20
-31 -31 -31 -30 -29 -28 -30 -29 -28 -28 -28 -27 -20 -25 -25 -27 -27 -28 -26 -26 -26 -26 -20 -18 -17 -18 -25 -26 -26 -24 -20 -19 -19 -20 -20 -18 -20 -22 -22 -20 -20 -20 -20 -21
-29 -28 -28 -27 -26 -27 -28 -26 -26 -26 -28 -27 -23 -21 -25 -25 -26 -25 -24 -26 -24 -22 -21 -19 -19 -21 -21 -27 -22 -20 -18 -18 -18 -18 -18 -20 -23 -21 -21 -20 -21 -21 -21 -22
-27 -27 -27 -26 -27 -27 -26 -24 -25 -28 -28 -26 -21 -21 -24 -23 -22 -23 -22 -22 -24 -22 -20 -20 -21 -21 -21 -19 -17 -16 -17 -18 -20 -25 -21 -20 -20 -21 -22 -22 -22 -22 -22 -23
-26 -26 -26 -26 -25 -25 -24 -25 -24 -23 -24 -22 -20 -20 -19 -21 -21 -20 -21 -19 -18 -20 -20 -19 -20 -19 -14 -15 -14 -14 -15 -16 -17 -18 -18 -20 -21 -23 -23 -22 -23 -22 -22 -22
-27 -26 -24 -23 -22 -23 -22 -23 -23 -22 -19 -19 -19 -19 -20 -20 -20 -20 -20 -18 -19 -20 -20 -19 -21 -21 -17 -13 -12 -13 -14 -14 -15 -17 -19 -23 -22 -22 -22 -22 -22 -21 -22 -22
-26 -25 -22 -20 -19 -19 -19 -19 -18 -18 -18 -17 -18 -18 -19 -19 -21 -22 -19 -22 -22 -23 -20 -20 -22 -19 -15 -13 -12 -12 -13 -14 -14 -15 -18 -20 -20 -20 -21 -23 -23 -23 -23 -23
-24 -23 -20 -19 -20 -20 -18 -18 -17 -18 -18 -17 -17 -17 -18 -19 -18 -19 -19 -24 -24 -22 -20 -23 -21 -18 -15 -14 -13 -13 -13 -13 -14 -14 -15 -16 -20 -21 -21 -22 -24 -24 -24 -24
-20 -20 -19 -19 -18 -17 -17 -16 -17 -17 -16 -16 -16 -18 -18 -18 -18 -19 -23 -24 -22 -22 -24 -21 -19 -18 -16 -14 -13 -13 -14 -13 -13 -14 -14 -14 -15 -17 -20 -21 -23 -24 -24 -25
-20 -20 -18 -18 -18 -19 -19 -19 -17 -15 -15 -15 -17 -18 -19 -18 -19 -21 -22 -23 -23 -20 -17 -15 -15 -15 -14 -14 -14 -13 -14 -14 -13 -13 -14 -14 -14 -15 -15 -17 -17 -21 -25 -25
-20 -21 -19 -19 -17 -17 -16 -16 -16 -16 -16 -17 -18 -18 -19 -20 -22 -20 -19 -17 -16 -18 -15 -15 -13 -13 -14 -13 -13 -13 -14 -15 -15 -14 -13 -14 -14 -14 -15 -15 -16 -16 -21 -24
-24 -21 -19 -19 -18 -18 -17 -16 -16 -17 -16 -17 -17 -20 -22 -20 -20 -17 -17 -16 -14 -14 -12 -12 -12 -13 -14 -14 -15 -15 -16 -16 -15 -15 -15 -14 -14 -14 -15 -15 -15 -15 -16 -17
-23 -20 -18 -18 -17 -17 -17 -16 -17 -17 -16 -16 -17 -17 -16 -18 -16 -15 -14 -12 -11 -12 -12 -13 -13 -14 -14 -15 -17 -17 -17 -17 -18 -18 -17 -15 -14 -14 -14 -14 -15 -15 -16 -16
Wind_Speed
27 27 27 25 23 24 21 19 5 10 12 5 5 6 5 9 7 17 13 6 11 8 8 6 9 10 10 14 7 8 8 5 4 7 2 2 2 1 3 3 3 3 1 3
26 25 24 23 22 18 15 9 13 15 21 7 9 6 7 10 9 11 8 9 10 9 8 7 11 7 8 15 11 7 5 3 1 4 2 3 5 4 3 2 1 4 4 3
26 26 25 23 21 20 18 10 4 5 15 10 4 13 14 11 20 20 14 11 14 11 12 13 5 6 5 14 11 18 13 7 8 9 4 4 5 6 4 2 2 2 3 4
29 29 28 25 22 20 16 7 7 9 4 6 12 14 8 18 13 12 11 7 19 17 12 14 17 14 8 6 10 6 7 6 5 10 9 8 11 12 14 5 3 2 3 6
28 24 20 22 23 19 12 6 5 9 8 16 11 14 6 8 9 9 8 10 15 16 11 6 6 7 8 6 7 7 7 0 5 6 16 19 19 10 9 7 6 10 9 7
25 24 20 21 19 16 3 6 10 9 14 5 4 4 6 7 12 3 12 11 5 14 5 13 17 32 24 12 6 8 5 4 2 4 10 2 8 8 7 4 8 2 3 1
24 23 22 18 17 13 4 5 7 3 3 5 4 7 8 13 11 7 8 16 5 5 22 15 14 26 25 22 17 15 4 3 4 3 4 2 2 6 10 9 6 8 6 5
28 24 22 19 17 12 11 9 3 2 4 10 6 14 5 17 17 7 5 9 13 9 6 3 2 4 3 10 10 18 14 2 5 4 4 4 2 3 3 3 3 5 4 4
31 29 27 22 18 14 10 9 7 7 11 11 13 6 9 4 5 8 6 11 13 15 2 3 5 5 4 7 12 9 13 13 5 3 4 2 1 4 10 2 2 4 6 7
33 35 34 33 27 23 16 17 19 17 16 13 15 6 5 10 5 3 7 16 16 18 3 4 5 3 3 5 6 8 7 5 7 6 4 1 1 11 7 2 2 9 10 11
32 37 39 37 30 28 26 34 36 45 25 21 21 19 11 10 7 2 11 6 8 8 5 3 3 4 4 4 3 3 4 4 3 2 4 2 7 2 1 3 3 11 13 10
23 20 21 22 37 38 38 51 47 47 42 21 30 30 24 18 13 6 10 3 4 6 3 3 3 4 4 1 2 5 3 3 2 3 4 2 1 5 6 1 10 17 18 16
31 34 26 30 23 21 16 17 18 17 19 31 34 31 32 30 25 22 6 7 7 7 8 5 2 7 2 2 2 0 5 3 1 4 3 5 11 5 11 11 16 20 18 18
22 25 25 27 31 31 25 17 24 25 14 7 14 27 33 32 30 27 20 16 17 18 15 9 3 3 4 1 3 3 2 4 1 5 7 10 3 6 6 14 21 20 21 23
10 11 11 11 14 16 22 29 33 25 13 6 6 16 20 22 28 33 27 25 30 23 9 6 2 3 4 3 2 2 2 4 2 4 3 6 14 13 19 25 21 22 26 28
20 21 18 12 9 9 7 4 12 10 8 5 2 6 23 12 16 22 28 27 31 17 7 5 5 4 2 3 0 5 7 8 11 6 16 21 25 25 14 20 26 25 26 26
10 11 12 19 26 22 12 7 6 6 4 3 3 4 11 21 14 15 13 16 14 11 5 7 3 4 3 3 1 11 15 13 13 15 17 18 9 16 26 26 25 24 26 26
11 12 12 11 9 10 14 26 16 5 5 7 3 5 5 23 10 8 13 8 7 12 5 4 5 2 3 2 9 19 17 16 17 8 15 22 25 27 26 24 25 27 28 27
11 12 11 8 8 7 9 8 10 18 12 7 7 2 4 18 12 8 6 6 4 5 5 4 4 2 3 8 20 20 15 13 18 19 21 23 24 25 25 25 25 27 29 28
10 9 5 5 11 11 9 4 5 9 12 9 6 7 3 12 10 7 10 6 2 2 2 7 3 3 7 14 17 18 18 17 18 23 26 24 25 25 27 27 26 26 28 28
4 4 5 9 10 8 6 8 11 11 6 9 10 8 6 9 3 3 8 1 3 3 3 2 2 3 5 20 24 22 19 19 19 21 23 24 24 27 28 28 27 27 27 28
6 5 6 9 10 9 9 3 6 6 2 10 9 10 7 6 5 3 5 1 3 2 6 3 3 4 17 24 28 27 23 21 22 21 23 23 24 25 26 28 28 27 27 27
6 5 5 8 11 10 6 6 5 5 11 7 18 11 6 4 3 3 4 4 2 5 3 2 4 15 30 32 33 32 28 24 24 24 23 24 25 24 25 28 27 27 28 26
6 7 8 4 5 1 4 4 5 9 12 20 22 5 3 4 4 2 3 2 1 4 4 3 3 28 36 37 35 33 32 28 26 26 26 26 26 27 26 26 25 27 28 26
7 7 4 2 1 3 7 10 10 11 15 16 7 5 3 3 2 0 2 6 4 3 3 4 30 36 35 36 36 35 31 29 28 28 28 28 27 28 28 26 26 25 27 27
7 8 5 1 2 4 7 10 11 18 17 7 3 2 3 3 0 4 0 2 3 4 12 32 35 36 38 38 36 33 30 28 28 29 29 28 28 28 30 29 27 26 25 27
5 4 4 1 1 4 8 11 16 19 10 5 3 5 2 5 3 4 2 2 6 29 34 35 37 37 39 37 35 34 32 31 31 31 29 28 28 29 30 31 27 26 27 27
Wind_Direction
312 309 307 303 300 294 295 287 258 250 221 196 222 233 222 239 227 238 245 240 222 228 222 226 219 217 212 180 149 179 206 206 210 221 223 163 72 75 193 193 254 232 265 118
317 313 310 305 299 295 292 265 257 242 212 240 235 239 243 239 237 224 219 214 216 206 233 248 216 214 231 179 162 192 178 208 256 326 21 46 72 32 356 302 244 223 272 121
319 317 315 312 305 293 277 275 274 243 216 245 252 259 255 254 232 240 239 244 220 231 237 218 226 223 244 196 203 201 170 192 188 234 162 111 81 18 335 285 241 35 51 113
321 320 318 313 310 305 303 257 269 272 267 263 240 256 271 265 261 231 220 222 230 234 237 243 233 230 212 195 337 227 196 220 89 33 75 84 95 65 50 75 330 62 121 95
334 334 331 318 316 315 297 274 294 312 319 337 336 21 33 351 329 347 353 8 2 2 289 339 341 343 22 46 344 1 344 250 102 70 89 85 71 55 63 49 55 82 90 80
352 349 346 343 343 340 306 266 282 332 25 12 9 10 309 328 338 167 50 333 304 36 46 94 89 86 79 60 41 351 19 351 82 118 158 190 46 18 51 80 39 61 80 51
7 2 354 357 353 358 350 333 332 316 33 33 30 356 317 320 312 286 4 359 31 66 118 94 85 80 70 53 45 27 30 9 58 102 237 141 183 56 90 99 50 28 48 29
20 17 15 14 11 38 41 28 41 70 83 332 345 339 307 325 336 345 322 11 342 338 259 263 331 34 34 30 26 24 19 2 66 111 56 129 116 26 350 14 74 21 360 6
36 37 36 33 30 37 35 53 74 82 109 359 324 321 330 341 322 327 332 337 4 1 249 33 47 41 317 356 348 19 14 35 76 63 88 106 354 321 330 164 206 16 345 321
44 48 46 44 45 54 66 85 97 98 98 28 30 17 309 331 316 249 309 334 348 10 46 59 41 62 11 29 26 346 352 2 48 40 96 102 336 313 330 55 229 327 321 306
62 61 59 56 66 69 68 87 88 87 90 58 44 33 16 356 348 348 315 342 9 359 53 64 41 51 45 80 10 21 30 358 17 4 79 40 359 1 113 179 5 348 335 308
68 54 48 62 77 79 78 80 78 79 76 72 55 44 33 24 15 313 8 80 323 359 77 44 88 55 41 53 36 346 30 146 205 132 204 263 243 312 195 255 341 340 323 314
70 64 72 58 56 53 53 81 79 73 71 59 50 43 47 45 43 40 12 24 20 42 60 111 134 79 122 64 322 356 340 5 84 35 285 252 301 223 226 282 311 319 318 303
71 69 69 61 58 64 58 60 69 82 82 83 41 49 47 51 50 54 57 63 65 66 61 70 77 96 34 170 172 112 226 347 312 267 284 300 232 229 275 304 310 310 315 312
44 28 24 41 50 43 43 59 66 72 83 137 126 52 45 52 56 58 64 68 67 59 46 50 60 78 84 28 90 350 203 198 110 247 239 274 285 306 301 304 307 311 314 311
67 62 53 25 329 318 353 353 42 45 56 89 49 40 25 41 46 50 51 51 54 58 64 80 75 47 86 85 111 254 259 263 255 258 295 290 295 301 304 307 314 315 309 309
28 28 35 54 60 66 63 33 350 21 42 75 61 9 7 12 27 30 32 41 43 43 66 49 50 46 44 88 27 316 328 315 298 295 286 289 298 304 308 310 311 308 307 309
336 340 351 355 4 35 43 52 44 40 56 60 58 320 6 12 359 9 10 17 33 37 64 49 31 352 39 41 300 325 325 314 304 304 298 295 301 300 307 309 311 310 309 313
339 343 334 353 17 17 13 27 39 47 59 82 62 31 297 347 14 350 343 5 49 26 51 25 354 307 43 277 304 311 328 308 304 303 299 302 301 306 307 308 308 308 311 313
342 359 25 25 0 335 340 7 22 33 38 52 67 347 300 340 339 350 359 23 44 52 308 336 58 265 270 337 336 329 328 320 308 302 306 312 307 307 307 307 308 307 309 311
345 42 41 3 1 15 31 37 34 0 39 15 5 358 320 351 5 306 13 284 341 55 296 83 332 301 286 345 346 342 326 320 308 301 300 301 299 302 305 308 310 310 312 312
61 62 56 24 25 30 56 3 1 35 324 347 348 338 317 322 326 323 348 73 24 267 333 67 340 255 334 340 344 345 339 324 320 314 311 310 305 307 304 305 309 311 310 311
39 46 49 18 11 36 54 344 321 343 345 337 331 327 313 313 312 295 4 37 256 312 35 245 232 326 333 336 337 334 336 333 322 319 315 313 313 311 308 307 310 309 307 311
52 41 29 67 356 339 190 204 240 289 292 313 319 296 307 314 328 332 34 235 34 19 10 270 299 331 329 330 331 331 330 328 327 325 320 315 313 313 311 309 310 308 307 310
64 51 66 65 314 285 295 303 302 316 312 322 308 288 301 310 343 167 308 1 344 204 254 277 325 324 325 325 325 326 327 325 319 322 322 319 314 311 311 314 310 307 306 307
59 54 75 101 331 333 343 339 341 347 338 339 335 308 18 347 329 10 293 70 258 282 317 317 320 320 321 323 328 326 325 323 319 318 317 317 317 314 310 311 313 311 305 305
65 78 73 70 338 337 347 351 350 353 354 10 352 29 283 292 335 330 183 271 317 315 314 315 316 318 319 328 327 326 325 322 321 319 316 313 314 316 313 311 314 310 308 307
Height
1482 1478 1475 1472 1469 1465 1463 1461 1453 1447 1445 1451 1442 1432 1428 1425 1420 1421 1418 1418 1417 1415 1416 1412 1414 1408 1404 1400 1405 1414 1411 1412 1423 1415 1428 1429 1428 1432 1419 1414 1420 1410 1406 1476
1478 1474 1469 1467 1463 1461 1458 1453 1444 1441 1439 1434 1426 1424 1418 1418 1415 1414 1412 1407 1407 1406 1405 1405 1400 1401 1393 1397 1399 1403 1407 1406 1413 1417 1425 1428 1436 1449 1449 1443 1431 1424 1405 1476
1474 1469 1466 1462 1458 1456 1456 1452 1441 1438 1435 1428 1424 1419 1411 1407 1406 1402 1402 1395 1400 1399 1395 1393 1390 1395 1390 1390 1392 1391 1398 1396 1395 1390 1409 1432 1448 1461 1458 1448 1425 1447 1481 1494
1470 1465 1460 1457 1453 1451 1451 1449 1437 1432 1424 1424 1420 1416 1407 1403 1397 1393 1390 1386 1388 1388 1382 1382 1379 1380 1385 1388 1392 1387 1390 1382 1408 1435 1439 1448 1464 1469 1466 1470 1474 1465 1495 1495
1466 1460 1455 1452 1447 1446 1445 1446 1441 1435 1430 1425 1422 1432 1433 1429 1420 1411 1404 1413 1406 1394 1379 1395 1388 1386 1398 1410 1400 1397 1395 1383 1414 1449 1454 1459 1469 1474 1479 1485 1487 1489 1494 1498
1465 1459 1453 1449 1445 1442 1441 1441 1440 1439 1445 1441 1439 1456 1449 1434 1434 1422 1418 1418 1407 1407 1416 1413 1413 1408 1414 1419 1417 1415 1406 1402 1396 1453 1454 1449 1463 1490 1491 1493 1494 1494 1496 1501
1464 1459 1452 1448 1444 1441 1441 1441 1442 1441 1453 1454 1458 1458 1455 1445 1441 1433 1423 1421 1415 1425 1419 1418 1414 1410 1414 1418 1426 1426 1418 1411 1422 1449 1454 1436 1497 1492 1493 1499 1500 1500 1500 1501
1467 1461 1453 1448 1443 1442 1442 1442 1442 1443 1466 1467 1463 1460 1456 1443 1438 1434 1430 1428 1427 1419 1421 1416 1413 1410 1418 1430 1433 1428 1427 1425 1439 1447 1478 1495 1493 1496 1498 1496 1504 1503 1502 1501
1473 1464 1456 1450 1446 1444 1444 1443 1443 1445 1457 1477 1475 1467 1461 1459 1452 1439 1431 1428 1424 1420 1417 1416 1434 1455 1453 1447 1442 1439 1441 1435 1435 1451 1463 1474 1498 1498 1497 1494 1495 1504 1504 1501
1479 1470 1463 1457 1451 1447 1447 1446 1447 1447 1462 1479 1475 1475 1472 1466 1459 1456 1444 1437 1428 1424 1424 1436 1448 1461 1465 1476 1479 1474 1467 1470 1475 1469 1488 1499 1499 1498 1496 1497 1509 1504 1502 1501
1484 1479 1473 1467 1463 1460 1456 1458 1457 1451 1465 1479 1478 1475 1473 1467 1465 1463 1448 1443 1442 1439 1443 1449 1461 1466 1477 1486 1497 1497 1499 1502 1498 1487 1496 1496 1500 1497 1500 1504 1502 1502 1500 1498
1491 1486 1482 1479 1476 1471 1468 1464 1467 1462 1462 1484 1482 1478 1475 1471 1467 1463 1459 1461 1459 1457 1459 1466 1470 1483 1491 1506 1511 1503 1507 1513 1514 1510 1509 1501 1500 1500 1500 1500 1499 1498 1496 1495
1498 1492 1489 1487 1483 1480 1475 1471 1472 1468 1473 1484 1483 1482 1482 1476 1470 1466 1465 1463 1461 1461 1461 1466 1482 1499 1503 1520 1518 1518 1509 1507 1512 1510 1504 1500 1498 1498 1498 1498 1497 1495 1493 1490
1501 1500 1498 1495 1491 1488 1485 1477 1478 1477 1479 1487 1497 1492 1485 1485 1479 1474 1471 1470 1468 1466 1466 1471 1487 1496 1499 1514 1512 1513 1513 1508 1517 1512 1500 1497 1497 1496 1496 1495 1493 1490 1488 1485
1507 1504 1502 1500 1498 1494 1491 1487 1484 1483 1485 1491 1495 1495 1494 1491 1489 1484 1479 1476 1473 1472 1474 1485 1499 1499 1502 1509 1511 1518 1508 1510 1517 1512 1499 1500 1495 1493 1493 1490 1487 1486 1482 1477
1511 1509 1505 1502 1498 1496 1495 1493 1493 1491 1490 1489 1497 1498 1497 1495 1493 1489 1486 1483 1482 1482 1487 1495 1500 1503 1504 1519 1526 1505 1504 1503 1502 1499 1497 1494 1490 1488 1487 1485 1482 1479 1476 1473
1515 1513 1511 1509 1505 1499 1497 1500 1498 1494 1493 1493 1499 1500 1499 1497 1494 1493 1492 1491 1491 1490 1494 1500 1502 1503 1505 1515 1523 1501 1500 1498 1497 1495 1493 1489 1485 1484 1482 1479 1477 1473 1470 1467
1517 1515 1513 1510 1509 1506 1504 1501 1498 1496 1496 1497 1507 1510 1504 1503 1501 1498 1497 1496 1496 1498 1502 1506 1506 1507 1507 1513 1504 1501 1498 1495 1492 1490 1489 1485 1482 1478 1476 1474 1471 1466 1463 1460
1517 1515 1512 1511 1509 1508 1508 1505 1503 1501 1502 1507 1520 1532 1524 1511 1509 1506 1503 1501 1503 1506 1508 1510 1511 1510 1512 1507 1501 1498 1495 1493 1489 1486 1483 1480 1477 1473 1470 1468 1465 1461 1456 1453
1516 1514 1513 1513 1514 1511 1510 1507 1506 1506 1511 1519 1531 1532 1528 1523 1514 1510 1508 1506 1512 1518 1517 1513 1514 1515 1506 1502 1498 1494 1491 1489 1486 1481 1476 1475 1472 1469 1464 1461 1458 1455 1450 1446
1516 1516 1517 1517 1515 1513 1512 1514 1518 1525 1530 1534 1534 1533 1532 1526 1526 1522 1519 1519 1517 1526 1521 1518 1524 1517 1501 1497 1494 1491 1487 1484 1481 1477 1473 1470 1467 1462 1458 1453 1451 1447 1444 1440
1518 1519 1519 1519 1519 1520 1525 1540 1538 1540 1546 1540 1537 1536 1533 1529 1527 1525 1522 1524 1522 1522 1519 1522 1521 1503 1496 1493 1489 1485 1482 1478 1475 1472 1467 1464 1460 1456 1452 1447 1444 1441 1437 1434
1521 1521 1523 1529 1537 1546 1559 1570 1556 1554 1547 1543 1541 1539 1535 1532 1530 1527 1527 1526 1528 1521 1525 1518 1507 1497 1494 1491 1486 1481 1478 1473 1469 1465 1462 1458 1453 1450 1447 1441 1438 1435 1431 1428
1524 1530 1543 1550 1563 1564 1564 1563 1559 1554 1548 1544 1540 1537 1536 1533 1531 1530 1529 1525 1525 1526 1526 1512 1500 1497 1492 1487 1482 1477 1472 1468 1464 1459 1455 1452 1448 1443 1440 1436 1433 1428 1424 1421
1533 1540 1561 1563 1562 1561 1560 1558 1554 1551 1546 1542 1539 1538 1538 1534 1533 1530 1528 1523 1526 1525 1517 1505 1501 1495 1490 1483 1478 1473 1468 1463 1458 1455 1450 1446 1442 1438 1433 1431 1426 1423 1418 1414
1544 1552 1559 1562 1562 1560 1558 1555 1552 1548 1543 1540 1540 1538 1537 1539 1539 1531 1535 1536 1528 1517 1510 1505 1498 1492 1486 1480 1474 1468 1464 1459 1454 1450 1445 1441 1436 1432 1427 1423 1420 1416 1412 1407
1556 1562 1562 1562 1561 1561 1559 1556 1553 1548 1545 1544 1542 1543 1545 1541 1537 1533 1531 1526 1521 1516 1507 1502 1496 1489 1482 1476 1470 1464 1458 1453 1448 1443 1439 1434 1431 1426 1421 1416 1413 1409 1405 1401